Weather History for Tomahawk, WI

Change the Weather History Date:

Thursday, September 5, 2013

  Actual Average (KRHI) Record (KRHI)
Temperature  
Mean Temperature 54 °F 60 °F  
Max Temperature 71 °F 71 °F 92 °F (1912)
Min Temperature 36 °F 49 °F 34 °F (2000)
Degree Days  
Heating Degree Days 12 6  
Month to date heating degree days 28  
Since 1 July heating degree days 155  
Cooling Degree Days 0 1  
Month to date cooling degree days 5  
Year to date cooling degree days 246  
Growing Degree Days 4 (Base 50)    
Moisture  
Dew Point 46 °F    
Average Humidity 77    
Maximum Humidity 97    
Minimum Humidity 45    
Precipitation  
Precipitation 0.00 in 0.13 in 0.82 in (1956)
Month to date precipitation 0.66  
Year to date precipitation 21.54  
Snow  
Snow 0.00 in - 0.00 in ()
Month to date snowfall  
Since 1 July snowfall  
Since 1 September snowfall  
Snow Depth -    
Sea Level Pressure  
Sea Level Pressure 30.26 in    
Wind  
Wind Speed 0 mph (SE)    
Max Wind Speed 6 mph    
Max Gust Speed -    
Visibility 8 miles    
Events Fog    
T = Trace of Precipitation, MM = Missing Value Source: NWS Daily Summary

Daily Weather History Graph

Daily Weather History Graph

Search for Another Location

Airport:

Trip Planner

Search our weather history database for the weather conditions in past years. The results will help you decide how hot, cold, wet, or windy it might be!

Date:

Astronomy

Sep. 05, 2013 Rise Set
Actual Time 6:25 AM CDT 7:28 PM CDT
Civil Twilight 5:55 AM CDT 7:59 PM CDT
Nautical Twilight 5:19 AM CDT 8:35 PM CDT
Astronomical Twilight 4:40 AM CDT 9:13 PM CDT
Moon 6:40 AM CDT (9/5) 7:15 PM CDT (9/5)
Length of Visible Light 14h 03m
Length of Day
13h 03m
New Moon, 0% of the Moon is Illuminated
Sep 5
New Moon
Sep 12
First Quarter
Sep 19
Full
Sep 26
Last Quarter
Oct 4
New

Hourly Weather History & Observations

Time (CDT) Temp. Dew Point Humidity Pressure Visibility Wind Dir Wind Speed Gust Speed Precip Events Conditions
12:15 AM 43.3 °F 42.1 °F 95% 30.21 in 10.0 mi Calm Calm - N/A   Clear
12:35 AM 42.1 °F 40.6 °F 95% 30.22 in 4.0 mi Calm Calm - N/A   Clear
12:55 AM 41.2 °F 40.1 °F 96% 30.22 in 7.0 mi Calm Calm - N/A   Clear
1:15 AM 41.5 °F 40.5 °F 96% 30.22 in 1.2 mi Calm Calm - N/A   Mist
1:35 AM 40.8 °F 39.6 °F 95% 30.23 in 1.2 mi Calm Calm - N/A   Mist
1:55 AM 39.6 °F 38.5 °F 96% 30.23 in 10.0 mi Calm Calm - N/A   Clear
2:15 AM 40.6 °F 39.4 °F 95% 30.23 in 10.0 mi Calm Calm - N/A   Clear
2:35 AM 38.8 °F 37.8 °F 96% 30.23 in 10.0 mi Calm Calm - N/A   Clear
2:55 AM 39.4 °F 38.3 °F 96% 30.24 in 1.0 mi Calm Calm - N/A   Mist
3:15 AM 37.6 °F 36.5 °F 96% 30.24 in 7.0 mi Calm Calm - N/A   Clear
3:35 AM 37.4 °F 36.5 °F 97% 30.24 in 3.0 mi Calm Calm - N/A   Clear
3:55 AM 37.4 °F 36.5 °F 97% 30.25 in 1.2 mi Calm Calm - N/A   Mist
4:15 AM 36.7 °F 35.8 °F 97% 30.25 in 3.0 mi Calm Calm - N/A   Clear
4:35 AM 38.1 °F 37.2 °F 97% 30.25 in 2.5 mi Calm Calm - N/A   Clear
4:55 AM 36.5 °F 35.6 °F 97% 30.26 in 1.5 mi Calm Calm - N/A   Scattered Clouds
5:15 AM 36.1 °F 35.2 °F 97% 30.27 in 1.8 mi Calm Calm - N/A   Mostly Cloudy
5:35 AM 36.1 °F 35.2 °F 97% 30.28 in 0.8 mi Calm Calm - N/A   Overcast
5:55 AM 37.4 °F 36.5 °F 97% 30.28 in 0.5 mi Calm Calm - N/A Fog Fog
6:15 AM 36.9 °F 36.0 °F 97% 30.29 in 0.5 mi Calm Calm - N/A Fog Fog
6:35 AM 36.5 °F 35.6 °F 97% 30.30 in 0.2 mi Calm Calm - N/A Fog Fog
6:55 AM 37.0 °F 36.1 °F 97% 30.30 in 1.5 mi Calm Calm - N/A   Mist
7:15 AM 38.1 °F 37.2 °F 97% 30.31 in 10.0 mi Calm Calm - N/A   Clear
7:35 AM 41.5 °F 40.6 °F 97% 30.31 in 10.0 mi Calm Calm - N/A   Clear
7:55 AM 47.1 °F 46.4 °F 97% 30.31 in 10.0 mi Calm Calm - N/A   Clear
8:15 AM 48.2 °F 47.3 °F 97% 30.31 in 10.0 mi ESE 3.5 mph - N/A   Clear
8:35 AM 49.6 °F 48.6 °F 96% 30.31 in 10.0 mi ESE 3.5 mph - N/A   Clear
8:55 AM 52.0 °F 48.2 °F 87% 30.31 in 10.0 mi SE 3.5 mph - N/A   Clear
9:15 AM 54.7 °F 46.8 °F 75% 30.32 in 10.0 mi SE 3.5 mph - N/A   Clear
9:35 AM 57.0 °F 46.9 °F 69% 30.32 in 10.0 mi Calm Calm - N/A   Clear
9:55 AM 58.5 °F 47.3 °F 66% 30.31 in 10.0 mi SE 3.5 mph - N/A   Clear
10:15 AM 59.2 °F 47.3 °F 65% 30.31 in 10.0 mi SSE 3.5 mph - N/A   Clear
10:35 AM 60.6 °F 48.2 °F 64% 30.31 in 10.0 mi Calm Calm - N/A   Clear
10:55 AM 61.5 °F 49.3 °F 64% 30.31 in 10.0 mi Calm Calm - N/A   Clear
11:15 AM 63.1 °F 49.1 °F 60% 30.30 in 10.0 mi Calm Calm - N/A   Clear
11:35 AM 63.1 °F 48.9 °F 60% 30.30 in 10.0 mi SSE 4.6 mph - N/A   Clear
11:55 AM 64.6 °F 48.4 °F 56% 30.30 in 10.0 mi ESE 3.5 mph - N/A   Clear
12:15 PM 64.9 °F 48.7 °F 56% 30.30 in 10.0 mi Calm Calm - N/A   Clear
12:35 PM 67.5 °F 49.3 °F 52% 30.29 in 10.0 mi Calm Calm - N/A   Clear
12:55 PM 67.1 °F 48.4 °F 51% 30.29 in 10.0 mi East 5.8 mph - N/A   Clear
1:15 PM 68.0 °F 48.4 °F 49% 30.29 in 10.0 mi Calm Calm - N/A   Clear
1:35 PM 69.1 °F 47.8 °F 47% 30.28 in 10.0 mi Calm Calm - N/A   Clear
1:55 PM 68.2 °F 48.0 °F 48% 30.28 in 10.0 mi SW 3.5 mph - N/A   Clear
2:15 PM 68.4 °F 47.1 °F 47% 30.27 in 10.0 mi Calm Calm - N/A   Clear
2:35 PM 69.6 °F 48.0 °F 46% 30.27 in 10.0 mi Calm Calm - N/A   Clear
2:55 PM 70.0 °F 48.4 °F 46% 30.26 in 10.0 mi SW 3.5 mph - N/A   Clear
3:15 PM 71.1 °F 50.2 °F 48% 30.26 in 10.0 mi SE 4.6 mph - N/A   Clear
3:35 PM 70.9 °F 49.3 °F 46% 30.25 in 10.0 mi Calm Calm - N/A   Clear
3:55 PM 71.1 °F 48.9 °F 45% 30.25 in 10.0 mi Calm Calm - N/A   Clear
4:15 PM 70.9 °F 48.6 °F 45% 30.25 in 10.0 mi Calm Calm - N/A   Clear
4:35 PM 70.7 °F 48.9 °F 46% 30.24 in 10.0 mi Calm Calm - N/A   Clear
4:55 PM 70.9 °F 51.6 °F 50% 30.24 in 10.0 mi Calm Calm - N/A   Clear
5:15 PM 70.3 °F 51.3 °F 51% 30.24 in 10.0 mi Calm Calm - N/A   Clear
5:35 PM 69.8 °F 52.0 °F 53% 30.24 in 10.0 mi Calm Calm - N/A   Clear
5:55 PM 68.9 °F 51.6 °F 54% 30.23 in 10.0 mi Calm Calm - N/A   Clear
6:15 PM 67.8 °F 52.2 °F 57% 30.23 in 10.0 mi Calm Calm - N/A   Clear
6:35 PM 66.2 °F 52.2 °F 61% 30.23 in 10.0 mi Calm Calm - N/A   Clear
6:55 PM 64.2 °F 52.7 °F 66% 30.23 in 10.0 mi Calm Calm - N/A   Clear
7:15 PM 61.2 °F 52.7 °F 74% 30.23 in 10.0 mi Calm Calm - N/A   Clear
7:35 PM 57.4 °F 52.3 °F 83% 30.23 in 10.0 mi Calm Calm - N/A   Clear
7:55 PM 55.9 °F 51.6 °F 85% 30.22 in 10.0 mi Calm Calm - N/A   Clear
8:15 PM 55.4 °F 51.6 °F 87% 30.23 in 10.0 mi Calm Calm - N/A   Clear
8:35 PM 53.4 °F 51.1 °F 92% 30.23 in 10.0 mi Calm Calm - N/A   Clear
8:55 PM 53.6 °F 51.1 °F 91% 30.23 in 10.0 mi Calm Calm - N/A   Clear
9:15 PM 54.0 °F 50.9 °F 89% 30.23 in 10.0 mi Calm Calm - N/A   Clear
9:35 PM 54.1 °F 51.1 °F 89% 30.23 in 10.0 mi Calm Calm - N/A   Clear
9:55 PM 54.1 °F 51.1 °F 89% 30.23 in 10.0 mi Calm Calm - N/A   Clear
10:15 PM 53.6 °F 50.4 °F 89% 30.23 in 10.0 mi Calm Calm - N/A   Clear
10:35 PM 52.9 °F 50.0 °F 90% 30.23 in 10.0 mi Calm Calm - N/A   Clear
10:55 PM 53.1 °F 50.0 °F 89% 30.23 in 10.0 mi Calm Calm - N/A   Clear
11:15 PM 52.5 °F 49.5 °F 89% 30.22 in 10.0 mi Calm Calm - N/A   Clear
11:35 PM 51.8 °F 49.5 °F 92% 30.22 in 10.0 mi Calm Calm - N/A   Clear
11:55 PM 51.8 °F 49.3 °F 91% 30.22 in 10.0 mi Calm Calm - N/A   Clear